Location: Unspecified
(47.7670°N, 8.8522°E)
Time: 00:46:30
(UTC+01:00)

ISS - Visible Passes

Search period start: 24 January 2019 00:00
Search period end: 03 February 2019 00:00
Orbit: 404 x 410 km, 51.6° (Epoch: 24 January)

Date Brightness Start Highest point End Pass type
(mag) Time Alt. Az. Time Alt. Az. Time Alt. Az.
24 Jan -1.4 17:48:12 10° SSE 17:49:36 12° SE 17:51:01 10° ESE visible
24 Jan -2.9 19:22:20 10° SW 19:24:47 45° SW 19:24:47 45° SW visible
25 Jan -3.1 18:31:11 10° SW 18:34:18 40° SSE 18:35:41 26° E visible
25 Jan -0.8 20:07:34 10° W 20:08:24 16° W 20:08:24 16° W visible
26 Jan -3.7 19:16:04 10° WSW 19:19:13 70° NW 19:19:13 70° NW visible
27 Jan -3.8 18:24:40 10° WSW 18:27:58 80° SSE 18:30:00 22° ENE visible
27 Jan -1.1 20:01:31 10° W 20:02:43 19° WNW 20:02:43 19° WNW visible
28 Jan -3.3 19:09:58 10° W 19:13:11 48° NNW 19:13:26 47° N visible
29 Jan -3.6 18:18:25 10° W 18:21:41 62° NNW 18:24:07 17° ENE visible
29 Jan -1.4 19:55:24 10° WNW 19:56:50 22° WNW 19:56:50 22° WNW visible
30 Jan -3.1 19:03:51 10° WNW 19:07:00 41° N 19:07:30 38° NNE visible
31 Jan -3.1 18:12:16 10° W 18:15:27 45° N 18:18:09 13° ENE visible
31 Jan -1.8 19:49:09 10° WNW 19:50:52 26° NW 19:50:52 26° NW visible
01 Feb -3.1 18:57:38 10° WNW 19:00:48 41° N 19:01:32 35° NE visible
02 Feb -3.0 18:06:04 10° WNW 18:09:13 40° N 18:12:12 11° ENE visible
02 Feb -2.4 19:42:46 10° WNW 19:44:55 36° NW 19:44:55 36° NW visible
